Time,B instrument,Bx,By,Bz,sigma B,Ion instrument,Status,Tp_par,Tp_perp,carrot,r_sun,clat,clong,earth_he_angle,n_p,vp_x,vp_y,vp_z,vth_p_par,vth_p_perp
1980-01-01 00:13:07,-1,nan,nan,nan,nan,1,3,nan,nan,1690,0.74432784,4.909308,238.07593,292.85327,nan,404.794,17.4666,47.9359,nan,nan
1980-01-01 00:56:19,-1,nan,nan,nan,nan,1,3,nan,nan,1690,0.74460649,4.9059939,237.68741,292.85928,nan,382.613,35.1101,19.9008,nan,nan
1980-01-01 01:39:31,-1,nan,nan,nan,nan,1,3,nan,nan,1690,0.74488491,4.902678,237.29889,292.8653,nan,384.818,26.0598,-4.3308,nan,nan
1980-01-01 02:21:37,-1,nan,nan,nan,nan,1,3,nan,nan,1690,0.74515611,4.8994503,236.91797,292.87109,nan,386.234,38.7434,18.735,nan,nan
1980-01-01 03:04:49,-1,nan,nan,nan,nan,1,3,nan,nan,1690,0.74543422,4.8961368,236.52939,292.87704,nan,383.98,13.6335,63.2114,nan,nan
1980-01-01 03:48:01,-1,nan,nan,nan,nan,1,3,nan,nan,1690,0.7457121,4.8928237,236.14078,292.88297,nan,388.091,33.1792,51.4708,nan,nan
1980-01-01 04:31:13,-1,nan,nan,nan,nan,1,3,nan,nan,1690,0.74598974,4.8895116,235.75214,292.88885,nan,406.424,26.686,39.4824,nan,nan
1980-01-01 05:14:25,-1,nan,nan,nan,nan,1,3,nan,nan,1690,0.74626732,4.8862009,235.36346,292.89471,nan,389.442,18.8464,39.8908,nan,nan
1980-01-01 05:57:37,-1,nan,nan,nan,nan,1,3,nan,nan,1690,0.74654472,4.8828878,234.97479,292.90057,nan,345.031,-6.98597,21.7272,nan,nan
1980-01-01 06:40:49,-1,nan,nan,nan,nan,1,3,nan,nan,1690,0.746822,4.8795762,234.58609,292.9064,nan,349.378,11.7525,30.5243,nan,nan
1980-01-01 07:24:01,-1,nan,nan,nan,nan,1,3,nan,nan,1690,0.74709898,4.8762684,234.19733,292.91217,nan,350.551,23.9266,20.0819,nan,nan
1980-01-01 08:08:19,-1,nan,nan,nan,nan,1,3,nan,nan,1690,0.74738282,4.8728709,233.79703,292.91812,nan,348.535,24.9078,21.15,nan,nan
1980-01-01 08:51:31,-1,nan,nan,nan,nan,1,3,nan,nan,1690,0.74765944,4.8695621,233.40823,292.92386,nan,348.825,14.5942,9.92231,nan,nan
1980-01-01 09:34:43,-1,nan,nan,nan,nan,1,3,nan,nan,1690,0.74793595,4.8662543,233.01941,292.92957,nan,351.87,23.746,14.4442,nan,nan
1980-01-01 11:10:18,-1,nan,nan,nan,nan,1,3,nan,nan,1690,0.74851447,4.8894377,232.22217,293.00732,nan,368.029,28.199,5.52914,nan,nan
1980-01-01 11:10:58,-1,nan,nan,nan,nan,1,3,nan,nan,1690,0.74851447,4.8894377,232.21826,293.00732,nan,367.653,31.0556,2.64308,nan,nan
1980-01-01 11:11:39,-1,nan,nan,nan,nan,1,3,nan,nan,1690,0.74852085,4.8893595,232.21045,293.00732,nan,366.76,29.6311,5.51278,nan,nan
1980-01-01 11:12:19,-1,nan,nan,nan,nan,1,3,nan,nan,1690,0.74852723,4.8892822,232.20679,293.00757,nan,365.995,32.6931,4.87989,nan,nan
1980-01-01 11:13:00,-1,nan,nan,nan,nan,1,3,nan,nan,1690,0.74853361,4.889204,232.19897,293.00757,nan,365.911,28.2881,7.99324,nan,nan
1980-01-01 11:13:40,1,6.43846,-4.76923,5.52308,0.285757,1,1,35545.8,50737.9,1690,0.74853367,4.889204,232.19507,293.00757,9.94849,364.27,29.6799,6.00086,24.2243,28.9417
1980-01-01 11:14:21,1,6.70714,-4.62857,4.87143,0.550742,1,1,32707.4,49915.3,1690,0.74854004,4.8891258,232.1875,293.00781,10.1639,364.826,30.7306,7.40948,23.237,28.7061
1980-01-01 11:15:01,1,4.90769,-4.63077,5.06154,0.542621,1,1,32053.9,44806.4,1690,0.74854642,4.8890486,232.17993,293.00806,10.4796,364.56,33.1594,4.78154,23.0037,27.1974
1980-01-01 11:15:42,1,3.88571,-4.72143,5.90714,0.620484,1,1,25806.6,47935.3,1690,0.74854642,4.8890486,232.17603,293.00806,10.3107,367.931,29.5681,7.31674,20.6406,28.131
1980-01-01 11:16:22,1,3.56923,-5.23846,5.66923,0.426628,1,1,27366.6,39039.8,1690,0.7485528,4.8889704,232.16821,293.00806,10.0426,369.838,33.5177,10.6637,21.2554,25.387
1980-01-01 11:17:03,1,3.61538,-5.19231,5.63077,0.545883,1,1,29633.3,38154.6,1690,0.74855918,4.8888931,232.16455,293.0083,10.5143,365.536,28.693,10.9445,22.1181,25.0976
1980-01-01 11:17:43,1,5.45833,-8.24167,1.9,1.75875,1,1,28645.2,47818.8,1690,0.74855918,4.8888922,232.15674,293.0083,7.94375,359.291,38.804,32.75,21.7462,28.0968
1980-01-01 11:18:24,1,6.04286,-8.11429,2.5,0.357714,1,1,48286.5,38343.8,1690,0.74856555,4.8888149,232.15283,293.0083,8.62495,363.814,35.7001,18.2278,28.2339,25.1597
1980-01-01 11:19:04,1,6.5,-7.50833,2.93333,0.375925,1,1,38378.4,40672.9,1690,0.74857193,4.8887367,232.14526,293.00854,8.43258,361.692,33.2651,15.4488,25.171,25.9126
1980-01-01 11:19:45,1,6.83846,-7.33846,3.03077,0.333885,1,1,48256.7,42454.9,1690,0.74857193,4.8887367,232.13745,293.00854,8.6143,360.293,28.0374,13.1484,28.2252,26.4741
1980-01-01 11:20:25,1,6.8,-7.35,3.4,0.193649,1,1,43069.0,44049.9,1690,0.74857837,4.8886595,232.13354,293.00854,8.51094,360.452,32.1944,15.7967,26.6649,26.9669
1980-01-01 11:21:06,1,6.60769,-7.25385,3.25385,0.595744,1,1,44735.4,45931.6,1690,0.74858475,4.8885813,232.12598,293.00879,9.35467,359.149,29.574,14.8677,27.1759,27.5368
1980-01-01 11:21:46,1,6.09167,-7.66667,2.86667,0.220322,1,1,40008.3,47632.1,1690,0.74858475,4.8885813,232.12207,293.00879,8.88149,358.615,31.281,14.3515,25.7,28.0419
1980-01-01 11:22:27,1,5.44615,-7.55385,2.87692,0.278415,1,1,45950.5,41817.2,1690,0.74859113,4.8885031,232.11426,293.00879,10.0222,353.162,31.3799,12.6311,27.5425,26.2746
1980-01-01 11:23:07,1,4.40769,-8.20769,2.36154,0.474685,1,1,27697.5,46069.0,1690,0.7485975,4.8884258,232.1106,293.00903,9.53224,357.03,33.9172,12.9914,21.3835,27.578
1980-01-01 11:23:48,1,4.55833,-7.71667,2.43333,0.646304,1,1,36443.4,42761.8,1690,0.7485975,4.8884258,232.10278,293.00903,9.94255,360.657,30.096,14.8551,24.5283,26.5697
1980-01-01 11:24:28,1,5.98333,-6.45833,2.6,0.436447,1,1,30175.0,46887.1,1690,0.74860388,4.8883476,232.09497,293.00903,10.6565,350.286,22.6263,11.2934,22.3193,27.8218
1980-01-01 11:25:09,1,4.30833,-7.80833,1.65833,0.471478,1,1,31621.8,47894.1,1690,0.74861026,4.8882694,232.09131,293.00928,10.6123,358.21,29.0756,15.2038,22.8482,28.1189
1980-01-01 11:25:49,1,3.9,-7.95,1.76667,0.270288,1,1,35487.6,40572.5,1690,0.74861026,4.8882694,232.0835,293.00928,10.7374,358.685,31.6696,15.7949,24.2045,25.8806
1980-01-01 11:26:30,1,4.13846,-7.65385,1.56923,0.454953,1,1,36900.7,42687.1,1690,0.74861664,4.8881922,232.07959,293.00928,10.7039,359.243,30.5176,17.8048,24.6817,26.5464
1980-01-01 11:27:10,1,4.4,-7.61538,1.67692,0.44893,1,1,33612.8,43393.0,1690,0.74862307,4.888114,232.07202,293.00952,10.7194,359.393,31.7514,15.5844,23.5565,26.765
1980-01-01 11:27:51,1,4.09231,-7.83077,1.71538,0.522851,1,1,38032.0,45743.2,1690,0.74862307,4.888114,232.06421,293.00952,11.4465,359.851,31.6136,15.9781,25.0572,27.4803
1980-01-01 11:28:31,1,4.025,-7.88333,1.65833,0.325107,1,1,27895.7,42320.2,1690,0.74862945,4.8880358,232.0603,293.00952,10.8031,360.657,32.7891,17.3442,21.4598,26.4321
1980-01-01 11:29:52,1,4.61538,-7.41538,1.86923,0.50242,1,1,32806.8,43296.2,1690,0.74863583,4.8879585,232.04883,293.00977,11.0736,357.601,31.7218,14.9506,23.2723,26.7352
1980-01-01 11:30:33,1,4.68571,-7.55,1.31429,0.330507,1,1,37719.5,38995.9,1690,0.74864221,4.8878803,232.04126,293.01001,10.2821,357.351,30.0339,16.9317,24.954,25.3728
1980-01-01 11:31:13,1,4.68333,-7.55,1.43333,0.328295,1,1,36962.8,43241.4,1690,0.74864858,4.8878021,232.03735,293.01001,10.775,357.142,31.4517,16.5021,24.7025,26.7182
1980-01-01 11:32:34,1,4.68333,-7.55,1.5,0.213437,1,1,33188.3,41771.3,1690,0.74865496,4.8877249,232.02197,293.01025,10.4491,356.186,31.6531,17.3388,23.4072,26.2601
1980-01-01 11:33:15,1,6.03077,-6.5,1.83077,0.462051,1,1,39376.1,43363.2,1690,0.74866134,4.8876467,232.01807,293.01025,11.0067,347.59,23.4147,14.1743,25.4961,26.7558
1980-01-01 11:33:55,1,7.0,-6.19231,2.16154,1.04366,1,1,54704.2,45608.0,1690,0.7486614,4.8876467,232.01025,293.01025,10.1422,353.569,27.3271,14.6202,30.0516,27.4396
1980-01-01 11:34:36,1,8.21667,-4.675,2.35,0.383967,1,1,33723.7,49748.1,1690,0.74866778,4.8875685,232.00659,293.0105,9.31432,356.341,30.3523,18.7389,23.5953,28.658
1980-01-01 11:35:16,1,8.14615,-4.78462,2.51538,0.37274,1,1,35798.7,49080.6,1690,0.74867415,4.8874912,231.99878,293.0105,9.34853,356.933,30.6599,17.7196,24.3104,28.4651
1980-01-01 11:35:57,1,8.70769,-3.58462,3.05385,0.418648,1,1,30142.5,47599.2,1690,0.74867415,4.8874912,231.99097,293.0105,8.81636,357.409,28.0957,16.3609,22.3073,28.0322
1980-01-01 11:36:37,1,8.63077,-4.13077,2.81538,0.373374,1,1,33070.8,50897.1,1690,0.74868053,4.887413,231.9873,293.01074,9.40428,355.865,30.399,18.589,23.3658,28.9871
1980-01-01 11:37:18,1,8.50833,-4.20833,3.33333,0.414829,1,1,32664.6,46084.9,1690,0.74868691,4.8873348,231.97949,293.01074,9.03811,355.982,26.1656,15.9857,23.2219,27.5827
1980-01-01 11:37:58,1,8.0,-4.975,3.56667,0.375185,1,1,34962.8,53945.4,1690,0.74868691,4.8873348,231.97559,293.01074,9.58834,356.335,30.1056,16.8505,24.0249,29.8425
1980-01-01 11:38:39,1,7.85385,-4.71538,3.77692,0.322527,1,1,33561.1,46404.3,1690,0.74869329,4.8872576,231.96802,293.01099,9.06528,357.516,27.8802,16.4816,23.5384,27.6781
1980-01-01 11:39:19,1,8.36923,-4.43077,3.12308,0.337236,1,1,33262.6,49683.9,1690,0.74869967,4.8871794,231.96411,293.01099,9.33841,357.824,30.6111,14.6488,23.4334,28.6395
1980-01-01 11:40:00,1,8.2,-4.45,3.77857,0.311514,1,1,32118.2,48318.3,1690,0.74870604,4.8871021,231.95654,293.01123,9.70702,356.995,27.1215,15.3346,23.0268,28.2432
1980-01-01 11:40:40,1,7.9,-4.40833,3.96667,0.403715,1,1,32398.4,51618.0,1690,0.7487061,4.8871021,231.94873,293.01123,9.59622,357.87,29.1463,14.2958,23.127,29.1916
1980-01-01 11:42:01,1,7.93333,-4.9,3.3,0.356682,1,1,36764.6,51964.7,1690,0.74871886,4.8869457,231.93726,293.01147,9.68735,358.999,30.083,14.3516,24.6362,29.2895
1980-01-01 11:42:42,1,8.04286,-4.61429,3.1,0.289264,1,1,37243.0,50475.2,1690,0.74871886,4.8869457,231.93335,293.01147,9.59138,358.933,30.3077,16.5687,24.7959,28.8667
1980-01-01 11:43:22,1,8.05833,-4.625,2.86667,0.285531,1,1,34744.1,48630.2,1690,0.74872524,4.8868685,231.92554,293.01147,9.36068,357.062,31.6836,17.7377,23.9496,28.3342
1980-01-01 11:44:03,1,8.23077,-4.46154,2.81538,0.352506,1,1,38121.8,51548.3,1690,0.74873161,4.8867903,231.92188,293.01172,9.30074,358.603,29.5393,19.2866,25.0868,29.1719
1980-01-01 11:44:43,1,8.20769,-4.5,2.90769,0.250915,1,1,38899.0,54883.8,1690,0.74873161,4.8867903,231.91406,293.01172,9.73247,357.531,30.1404,18.859,25.3412,30.1009
1980-01-01 11:45:24,1,8.07857,-4.59286,2.77143,0.378099,1,1,39230.4,58268.6,1690,0.74873799,4.8867121,231.90649,293.01196,8.87209,358.616,30.1967,17.8236,25.4489,31.0152
1980-01-01 11:46:04,1,7.41667,-5.31667,2.66667,0.288675,1,1,45746.7,58910.8,1690,0.74874437,4.8866348,231.90259,293.01196,9.89447,359.467,31.8185,19.7708,27.4813,31.1857
1980-01-01 11:46:45,1,7.51538,-5.37692,2.63077,0.319578,1,1,32579.4,58169.6,1690,0.74874437,4.8866348,231.89478,293.01196,9.45876,361.081,33.8934,17.6412,23.1915,30.9889
1980-01-01 11:48:06,1,6.63077,-5.96154,2.13077,0.398666,1,1,43017.8,52087.0,1690,0.74875718,4.8864784,231.8833,293.01221,9.4097,359.587,29.1353,21.2096,26.6491,29.3239
1980-01-01 12:24:41,-1,nan,nan,nan,nan,1,3,nan,nan,1690,0.74898696,4.8836775,231.552,293.01685,nan,400.276,29.4622,24.8647,nan,nan
1980-01-01 12:26:02,1,-3.22143,-6.54286,-2.49286,0.925324,1,1,82094.1,43896.6,1690,0.74899971,4.8835211,231.54053,293.01709,14.8316,400.679,26.7702,26.7703,36.8141,26.9199
1980-01-01 12:26:42,1,-3.67143,-6.74286,-2.96429,0.520645,1,1,83496.9,46835.2,1690,0.74899971,4.8835211,231.53662,293.01709,13.5179,398.496,24.2508,27.5376,37.1273,27.8064
1980-01-01 12:27:27,1,-3.20714,-7.19286,-1.91429,0.683255,1,1,68125.8,40858.8,1690,0.74900609,4.8834438,231.52905,293.01733,14.0384,380.982,79.3545,22.5314,33.5362,25.9717
1980-01-01 12:28:08,1,-2.98571,-7.05,-2.55,0.442972,1,1,94533.6,46169.3,1690,0.74901247,4.8833656,231.52124,293.01733,14.7475,397.257,27.1186,23.192,39.5049,27.608
1980-01-01 12:29:29,1,-2.66429,-7.29286,-2.00714,0.276549,1,1,86720.6,43129.6,1690,0.74901885,4.8832884,231.50977,293.01758,14.6342,395.462,28.8525,24.3075,37.8372,26.6837
1980-01-01 12:30:06,1,-2.09286,-7.42143,-2.38571,0.472833,1,1,76856.4,44854.2,1690,0.74902529,4.8832102,231.5061,293.01782,14.5257,394.732,30.3288,25.5775,35.6203,27.2119
1980-01-01 12:30:46,1,-2.85714,-7.15714,-2.0,0.76572,1,1,88527.4,47349.4,1690,0.74902529,4.8832102,231.49829,293.01782,14.6515,396.716,27.2039,23.8071,38.2293,27.9586
1980-01-01 12:31:27,1,-2.54667,-6.87333,-2.58667,0.441513,1,1,79425.7,43191.3,1690,0.74903166,4.883132,231.49438,293.01782,14.6603,394.364,28.9659,26.9093,36.2108,26.7027
1980-01-01 12:32:07,1,-3.12143,-6.62857,-2.15,0.650667,1,1,85971.7,44153.7,1690,0.74903804,4.8830547,231.48682,293.01807,15.9434,397.567,28.2903,25.0915,37.6735,26.9986
1980-01-01 12:32:48,1,-3.39333,-6.75333,-2.23333,0.278089,1,1,77512.7,42336.7,1690,0.74903804,4.8830547,231.479,293.01807,15.7869,397.909,28.6826,28.5141,35.7721,26.4372
1980-01-01 12:33:28,1,-2.95714,-6.88571,-3.01429,0.271052,1,1,81723.9,43359.4,1690,0.74904442,4.8829765,231.4751,293.01807,14.1192,396.293,24.1429,27.4379,36.731,26.7547
1980-01-01 12:34:09,1,-2.32,-6.8,-3.01333,0.500755,1,1,76865.2,44360.8,1690,0.7490508,4.8828993,231.46753,293.01831,15.144,397.536,27.7745,28.5637,35.6224,27.0619
1980-01-01 12:34:49,1,-2.82667,-7.30667,-1.74667,0.632245,1,1,91653.4,43035.3,1690,0.7490508,4.8828993,231.46362,293.01831,15.7242,396.091,29.4795,23.6572,38.8984,26.6545
1980-01-01 12:35:30,1,-2.87857,-7.09286,-0.921429,0.579188,1,1,81841.5,39779.0,1690,0.74905717,4.8828211,231.45581,293.01831,16.0822,398.821,28.491,24.8333,36.7574,25.6262
1980-01-01 12:36:10,1,-4.2,-6.03333,-2.32667,0.383203,1,1,76733.4,43556.2,1690,0.74906355,4.8827438,231.45215,293.01855,16.3708,402.021,27.4316,27.6373,35.5918,26.8153
1980-01-01 12:36:51,1,-3.89286,-6.07857,-2.67143,0.81947,1,1,76137.5,47312.0,1690,0.74906355,4.8827429,231.44434,293.01855,16.4083,399.398,26.2938,28.3821,35.4534,27.9475
1980-01-01 12:37:31,1,-3.95,-5.75,-3.25714,0.265153,1,1,83896.6,44044.3,1690,0.74906993,4.8826656,231.43652,293.01855,16.3006,401.086,27.1209,30.9327,37.216,26.9651
1980-01-01 12:38:12,1,-3.26429,-6.52143,-2.40714,0.359066,1,1,82187.3,43591.6,1690,0.74907631,4.8825874,231.43286,293.0188,15.3081,398.902,27.4669,28.0773,36.835,26.8262
1980-01-01 12:39:33,1,-3.02857,-6.70714,-2.47143,0.330198,1,1,80025.7,44823.7,1690,0.74908268,4.8825102,231.42114,293.0188,16.0652,397.432,27.2797,27.1443,36.3473,27.2027
1980-01-01 12:40:13,1,-2.8,-6.2,-3.4,0.530498,1,1,83349.3,46310.4,1690,0.74908906,4.882432,231.41357,293.01904,15.5009,398.461,27.5938,31.2926,37.0944,27.6501
1980-01-01 12:40:54,1,-3.05333,-6.34,-2.65333,0.476841,1,1,92833.3,44352.5,1690,0.74908906,4.882432,231.40967,293.01904,16.1054,399.982,25.4292,32.6967,39.148,27.0593
1980-01-01 12:41:34,1,-3.4,-6.26,-2.50667,0.372857,1,1,85906.8,52519.7,1690,0.74909544,4.8823547,231.40186,293.01904,15.9337,399.718,25.7461,32.2995,37.6593,29.4455
1980-01-01 12:42:15,1,-3.85714,-5.94286,-2.58571,0.384124,1,1,86088.6,46044.7,1690,0.74910182,4.8822765,231.39429,293.01929,15.5086,402.313,25.3655,31.9685,37.6991,27.5707
1980-01-01 12:42:55,1,-2.92143,-6.36429,-2.26429,0.478678,1,1,88697.8,47952.9,1690,0.74910182,4.8822765,231.39038,293.01929,15.5741,398.948,27.6628,31.2055,38.2661,28.1362
1980-01-01 12:43:36,1,-1.78,-6.56667,-2.03333,0.587121,1,1,71982.2,45131.4,1690,0.7491082,4.8821983,231.38257,293.01929,15.4713,396.552,27.5634,30.1486,34.4723,27.2959
1980-01-01 12:44:16,1,-1.83333,-6.27333,-1.82667,0.650743,1,1,69917.9,47945.5,1690,0.74911457,4.8821211,231.37891,293.01953,17.5341,395.013,27.9866,28.5606,33.9744,28.134
1980-01-01 12:44:57,1,-2.6,-5.17857,-3.22143,0.345082,1,1,99621.2,46282.1,1690,0.74911463,4.8821211,231.37109,293.01953,16.6321,398.61,21.6873,33.3287,40.554,27.6417
1980-01-01 12:45:37,1,-1.58571,-6.81429,-1.57857,0.622085,1,1,97835.5,47979.6,1690,0.74912101,4.8820429,231.36743,293.01978,16.7246,395.786,24.8466,28.5035,40.1889,28.144
1980-01-01 12:46:17,1,-2.47857,-6.1,-1.62143,0.853863,1,1,87243.1,43256.8,1690,0.74912739,4.8819656,231.35962,293.01978,16.828,398.11,24.0079,27.1135,37.951,26.723
1980-01-01 12:47:38,1,-2.625,-4.84167,-3.30833,0.70005,1,1,92295.0,54398.6,1690,0.74913377,4.8818874,231.34814,293.02002,18.8595,395.833,21.41,37.6256,39.0343,29.9676
1980-01-01 12:48:18,1,-0.3,-5.50714,-3.64286,0.567172,1,1,101412.0,52027.0,1690,0.74914014,4.8818102,231.34033,293.02002,17.0061,387.599,21.6072,35.5936,40.9168,29.3071
1980-01-01 12:50:16,1,-0.463636,-6.3,-2.24545,0.458528,1,1,95860.5,51274.1,1690,0.74918532,4.8512878,231.25977,292.95508,16.7016,390.833,21.6461,35.8739,39.7812,29.0942
1980-01-01 12:51:01,1,-3.33636,-3.75455,-4.61818,0.257451,1,1,74285.5,50493.7,1690,0.7491529,4.8816538,231.31714,293.02026,16.9987,391.724,24.2688,34.6393,35.0195,28.872
1980-01-01 12:51:36,1,-3.21667,-3.28333,-4.475,0.509561,1,1,88268.8,51374.2,1690,0.74915928,4.8815765,231.31348,293.02051,17.8499,400.235,15.1689,35.8036,38.1735,29.1226
1980-01-01 12:51:42,1,-3.025,-3.45,-4.425,0.606561,1,1,85130.1,48408.6,1690,0.74915928,4.8815765,231.30957,293.02051,16.6182,396.652,19.1045,36.2218,37.4886,28.2696
1980-01-01 12:52:22,1,-3.11538,-4.5,-3.23846,0.893037,1,1,97974.8,49669.1,1690,0.74916565,4.8814983,231.30566,293.02051,17.3718,399.306,19.1766,31.5142,40.2175,28.6353
1980-01-01 12:53:43,1,-2.66429,-5.11429,-2.55714,0.366798,1,1,80865.6,48170.0,1690,0.74917203,4.8814211,231.29419,293.02075,18.2832,396.152,19.6571,30.0954,36.5376,28.1998
1980-01-01 12:54:24,1,-2.83333,-5.18,-3.08,0.860284,1,1,76099.0,47142.9,1690,0.74917841,4.8813429,231.28638,293.02075,19.3919,394.853,24.0264,31.6927,35.4444,27.8975
1980-01-01 12:55:04,1,-2.83571,-5.05714,-3.42857,0.432187,1,1,74982.2,40638.3,1690,0.74918479,4.8812647,231.27881,293.021,18.9392,396.189,21.5477,32.7387,35.1833,25.9015
1980-01-01 12:55:45,1,-3.55,-5.81429,-3.05,0.449376,1,1,61088.9,42760.8,1690,0.74918479,4.8812647,231.2749,293.021,17.6664,396.107,17.5299,31.0137,31.757,26.5693
1980-01-01 12:56:25,1,-3.36667,-5.89333,-2.97333,0.351378,1,1,76258.2,41408.4,1690,0.74919116,4.8811874,231.26709,293.021,17.5215,394.646,16.2879,29.9603,35.4814,26.1458
1980-01-01 12:57:06,1,-3.12143,-5.48571,-2.48571,0.290056,1,1,56103.0,43906.2,1690,0.74919754,4.8811092,231.26343,293.02124,18.6328,396.466,21.1593,28.9323,30.4334,26.9229
1980-01-01 12:57:46,1,-3.1,-5.65333,-2.28,0.37959,1,1,59747.1,41915.5,1690,0.74919754,4.8811092,231.25562,293.02124,18.8437,397.266,21.4644,28.652,31.4063,26.3054
1980-01-01 12:59:07,1,-2.49286,-5.92143,-2.37143,0.368533,1,1,71250.7,42895.6,1690,0.7492103,4.8809538,231.24414,293.02148,18.8466,394.778,20.3675,28.8494,34.2967,26.6112
1980-01-01 12:59:48,1,-0.564286,-6.97143,-1.82857,0.293901,1,1,58163.0,42088.5,1690,0.74921036,4.8809538,231.23633,293.02148,18.1139,388.59,25.6428,28.7537,30.9871,26.3597
1980-01-01 13:00:28,1,-0.753846,-6.89231,-1.74615,0.414529,1,1,62156.6,44355.4,1690,0.74921674,4.8808765,231.23267,293.02173,18.6647,387.714,25.3083,28.7332,32.0333,27.0602
1980-01-01 13:01:09,1,-0.792857,-6.82857,-1.29286,0.545576,1,1,57056.8,42619.8,1690,0.74922305,4.8807983,231.22485,293.02173,18.7506,388.249,26.7424,29.1698,30.691,26.5255
1980-01-01 13:01:49,1,-1.91429,-6.52143,-1.45714,0.35607,1,1,60071.1,41243.2,1690,0.74922311,4.8807983,231.22095,293.02173,18.9487,391.603,25.5317,26.7644,31.4913,26.0936
1980-01-01 13:02:30,1,-2.62143,-6.25,-1.62857,0.686978,1,1,52333.0,41199.2,1690,0.74922943,4.8807201,231.21338,293.02197,18.2844,394.015,23.0271,27.9503,29.3931,26.0797
1980-01-01 13:03:10,1,-3.96,-4.71333,-2.27333,1.74552,1,1,60375.8,42080.6,1690,0.74923581,4.8806429,231.20557,293.02197,19.3408,396.338,21.2245,29.5046,31.5711,26.3572
1980-01-01 13:03:51,1,5.18571,-5.51429,1.3,0.681086,1,1,49582.3,53615.8,1690,0.74923581,4.8806429,231.20166,293.02197,15.8253,359.237,24.0713,17.1645,28.6102,29.7512
1980-01-01 13:04:31,1,5.45,-3.73333,1.26667,1.04974,1,1,61760.5,54895.2,1690,0.74924219,4.8805647,231.19409,293.02222,14.3375,356.826,23.2517,16.261,31.9311,30.1041
1980-01-01 13:05:12,1,7.5,-2.40769,2.40769,0.480261,1,1,53031.1,54024.7,1690,0.74924856,4.8804874,231.19019,293.02222,14.214,354.693,12.2198,12.9197,29.5885,29.8644
1980-01-01 13:05:52,1,8.01538,-1.6,2.83846,0.736295,1,1,56693.6,60031.7,1690,0.74924856,4.8804874,231.18237,293.02222,14.1947,356.328,13.5985,12.9143,30.5932,31.481
1980-01-01 13:06:33,1,8.1,-0.930769,2.94615,0.486747,1,1,50255.8,55790.9,1690,0.74925494,4.8804092,231.17871,293.02246,13.4183,356.057,15.5578,18.2213,28.8039,30.3487
1980-01-01 13:07:13,1,8.49231,-0.223077,3.21538,0.309991,1,1,41434.7,51702.7,1690,0.74926132,4.880331,231.1709,293.02246,12.9288,356.82,17.1864,15.1177,26.1541,29.2156
1980-01-01 13:07:54,1,8.33571,0.528571,3.7,0.297695,1,1,36707.5,43639.4,1690,0.74926132,4.880331,231.16309,293.02246,12.57,358.356,17.5384,16.2445,24.617,26.8409
1980-01-01 13:08:34,1,8.6,0.0615385,3.4,0.252795,1,1,33533.4,47904.2,1690,0.7492677,4.8802538,231.15942,293.02271,12.6822,356.027,15.7219,15.2747,23.5286,28.1219
1980-01-01 13:09:15,1,8.89231,-0.215385,3.02308,0.22689,1,1,32691.2,46042.1,1690,0.74927408,4.8801756,231.15161,293.02271,12.9579,356.479,16.7868,17.4705,23.2313,27.5699
1980-01-01 13:09:55,1,8.8,-0.625,2.71667,0.380697,1,1,40310.9,46359.1,1690,0.74927408,4.8801756,231.14771,293.02271,13.2124,356.873,17.8236,16.8361,25.797,27.6647
1980-01-01 13:11:16,1,9.02308,-1.57692,2.46154,0.26558,1,1,37514.1,42915.4,1690,0.74928683,4.8800201,231.13623,293.02295,14.0349,359.536,20.9609,18.0949,24.886,26.6173
1980-01-01 13:11:57,1,8.96923,-1.8,2.24615,0.359487,1,1,31540.3,41068.1,1690,0.74928683,4.8800201,231.12842,293.02295,13.3866,358.361,22.277,20.1979,22.8187,26.0382
1980-01-01 13:12:37,1,8.51538,-2.16923,1.94615,0.363416,1,1,50073.1,44130.2,1690,0.74929321,4.8799429,231.12085,293.02319,14.3219,359.84,21.887,19.4031,28.7515,26.9914
1980-01-01 13:13:18,1,7.91538,-3.93846,0.984615,0.456122,1,1,37118.8,37471.6,1690,0.74929959,4.8798647,231.11694,293.02319,13.0646,362.511,27.7747,23.7282,24.7546,24.8719
1980-01-01 13:13:58,1,8.06667,-3.94167,1.33333,0.43229,1,1,38171.8,40453.5,1690,0.74929959,4.8798647,231.10913,293.02319,13.9723,363.285,29.829,24.56,25.1032,25.8426
1980-01-01 13:14:39,1,8.35385,-1.28462,2.70769,0.337236,1,1,40010.1,43659.4,1690,0.74930596,4.8797865,231.10547,293.02344,13.7116,360.224,20.5458,16.7223,25.7006,26.8471
1980-01-01 13:15:19,1,8.43077,-1.28462,2.26154,0.481615,1,1,67359.7,52243.2,1690,0.74931234,4.8797092,231.0979,293.02368,15.8888,363.263,20.2494,19.0035,33.3471,29.3679
1980-01-01 13:16:00,1,8.62308,-2.25385,2.30769,0.357837,1,1,32080.4,40460.5,1690,0.74931872,4.879631,231.09009,293.02368,12.7064,360.119,20.7136,18.7776,23.0133,25.8448
1980-01-01 13:16:40,1,8.4,-2.79167,2.16667,0.473976,1,1,43842.6,49054.2,1690,0.74931872,4.879631,231.08618,293.02368,14.0398,360.711,23.6644,18.742,26.9033,28.4575
1980-01-01 13:17:21,1,7.59231,-4.47692,1.72308,1.50116,1,1,38780.8,40451.2,1690,0.7493251,4.8795538,231.07861,293.02393,13.3795,362.123,27.3359,21.5971,25.3027,25.8418
1980-01-01 13:18:01,1,4.73846,-7.75385,0.730769,0.252795,1,1,65059.7,41120.1,1690,0.74933147,4.8794756,231.07471,293.02393,13.9318,365.674,29.9145,20.6695,32.7728,26.0546
1980-01-01 13:18:42,1,4.86154,-7.34615,1.42308,0.716087,1,1,65988.1,48206.7,1690,0.74933147,4.8794756,231.06689,293.02393,15.2514,368.921,30.827,21.6014,33.0058,28.2105
1980-01-01 13:19:22,1,6.28462,-6.30769,1.39231,0.42746,1,1,68292.5,44449.6,1690,0.74933785,4.8793974,231.06323,293.02417,14.5744,363.014,24.538,20.9959,33.5772,27.0889
1980-01-01 13:20:03,1,6.27857,-6.41429,1.32857,0.138689,1,1,60402.5,47543.0,1690,0.74934423,4.8793201,231.05542,293.02417,13.6697,361.286,24.7853,18.9019,31.5781,28.0157
1980-01-01 13:20:43,1,5.78462,-6.99231,0.384615,1.20458,1,1,41345.8,43205.3,1690,0.74934423,4.8793201,231.04761,293.02417,12.776,370.291,28.7758,25.1831,26.126,26.7071
1980-01-01 13:21:24,1,5.84615,-7.09231,1.03846,0.33193,1,1,75009.0,49638.8,1690,0.74935061,4.8792419,231.04395,293.02441,14.3584,366.719,31.4394,26.2178,35.1896,28.6265
1980-01-01 13:22:04,1,5.67692,-7.15385,0.961538,0.242765,1,1,53062.7,46906.9,1690,0.74935699,4.8791647,231.03613,293.02441,14.0078,367.228,33.464,20.0237,29.5973,27.8276
1980-01-01 13:22:45,1,5.62308,-6.73846,1.42308,0.305957,1,1,70125.8,48760.5,1690,0.74935699,4.8791647,231.03223,293.02441,14.8047,365.631,31.385,21.8418,34.0249,28.3721